| time (UTC) | temp F | wind direction | speed MPH | gust MPH | rain 1hr in | rain 24hr in | rain mn in | humidity % | barometer mb |
| 20260504081553 | 51 | 222 | 3.0 | 6.0 | 0.00 | 0.00 | 0.00 | 66 | 1000.2 |
| 20260504080109 | 51 | 217 | 4.0 | 6.0 | 0.00 | 0.00 | 0.00 | 65 | 1000.4 |
| 20260504050012 | 57 | 171 | 4.0 | 8.0 | 0.00 | 0.00 | 0.00 | 52 | 1002.2 |
| 20260504044511 | 57 | 153 | 4.0 | 8.0 | 0.00 | 0.00 | 0.00 | 51 | 1002.3 |
| 20260504043010 | 58 | 155 | 3.0 | 7.0 | 0.00 | 0.00 | 0.00 | 49 | 1002.5 |
| 20260504041509 | 59 | 120 | 5.0 | 7.0 | 0.00 | 0.00 | 0.00 | 46 | 1002.9 |
| 20260504040017 | 60 | 360 | 4.0 | 7.0 | 0.00 | 0.00 | 0.00 | 44 | 1003.2 |
| 20260504034507 | 60 | 127 | 3.0 | 6.0 | 0.00 | 0.00 | 0.00 | 44 | 1003.1 |
| 20260504033004 | 60 | 114 | 4.0 | 7.0 | 0.00 | 0.00 | 0.00 | 45 | 1003.0 |
| 20260504031503 | 62 | 170 | 2.0 | 3.0 | 0.00 | 0.00 | 0.00 | 42 | 1003.3 |
| 20260504030002 | 63 | 161 | 0.0 | 3.0 | 0.00 | 0.00 | 0.00 | 41 | 1003.6 |
| 20260504024502 | 63 | 163 | 1.0 | 3.0 | 0.00 | 0.00 | 0.00 | 41 | 1003.6 |
| 20260504023104 | 63 | 162 | 2.0 | 3.0 | 0.00 | 0.00 | 0.00 | 40 | 1003.6 |
| 20260504021600 | 64 | 162 | 2.0 | 3.0 | 0.00 | 0.00 | 0.00 | 39 | 1003.6 |
| 20260504021502 | 64 | 163 | 2.0 | 4.0 | 0.00 | 0.00 | 0.00 | 39 | 1003.6 |
| 20260504014607 | 65 | 157 | 2.0 | 3.0 | 0.00 | 0.00 | 0.00 | 38 | 1003.6 |
| 20260504013106 | 66 | 176 | 2.0 | 6.0 | 0.00 | 0.00 | 0.00 | 38 | 1003.6 |
| 20260504011558 | 68 | 279 | 0.0 | 2.0 | 0.00 | 0.00 | 0.00 | 36 | 1003.8 |
| 20260504010056 | 68 | 281 | 1.0 | 3.0 | 0.00 | 0.00 | 0.00 | 35 | 1004.0 |
| 20260504004555 | 68 | 282 | 1.0 | 6.0 | 0.00 | 0.00 | 0.00 | 34 | 1004.3 |
| 20260504003102 | 69 | 290 | 4.0 | 8.0 | 0.00 | 0.00 | 0.00 | 33 | 1004.5 |
| 20260504001605 | 68 | 281 | 7.0 | 10.0 | 0.00 | 0.00 | 0.00 | 33 | 1004.8 |
| 20260504000105 | 69 | 285 | 5.0 | 11.0 | 0.00 | 0.00 | 0.00 | 32 | 1005.1 |
| 20260503234546 | 69 | 282 | 6.0 | 17.0 | 0.00 | 0.00 | 0.00 | 31 | 1005.3 |
| 20260503233046 | 70 | 263 | 6.0 | 15.0 | 0.00 | 0.00 | 0.00 | 30 | 1005.5 |
| 20260503231544 | 70 | 275 | 8.0 | 18.0 | 0.00 | 0.00 | 0.00 | 29 | 1005.4 |
| 20260503230043 | 70 | 248 | 7.0 | 17.0 | 0.00 | 0.00 | 0.00 | 29 | 1005.5 |
| 20260503224545 | 70 | 224 | 8.0 | 17.0 | 0.00 | 0.00 | 0.00 | 29 | 1005.5 |
| 20260503223041 | 71 | 253 | 8.0 | 13.0 | 0.00 | 0.00 | 0.00 | 29 | 1005.7 |
| 20260503221542 | 70 | 296 | 9.0 | 16.0 | 0.00 | 0.00 | 0.00 | 30 | 1005.8 |
| 20260503220036 | 70 | 319 | 11.0 | 19.0 | 0.00 | 0.00 | 0.00 | 29 | 1005.9 |
| 20260503214534 | 70 | 279 | 6.0 | 17.0 | 0.00 | 0.00 | 0.00 | 31 | 1006.1 |
| 20260503213031 | 70 | 276 | 5.0 | 10.0 | 0.00 | 0.00 | 0.00 | 32 | 1006.4 |
| 20260503211531 | 70 | 252 | 7.0 | 16.0 | 0.00 | 0.00 | 0.00 | 32 | 1006.7 |
| 20260503210027 | 70 | 250 | 10.0 | 18.0 | 0.00 | 0.00 | 0.00 | 31 | 1006.9 |
| 20260503204529 | 70 | 286 | 10.0 | 17.0 | 0.00 | 0.00 | 0.00 | 31 | 1007.2 |
| 20260503203024 | 69 | 277 | 6.0 | 18.0 | 0.00 | 0.00 | 0.00 | 33 | 1007.5 |
| 20260503201521 | 69 | 334 | 7.0 | 17.0 | 0.00 | 0.00 | 0.00 | 33 | 1007.6 |
| 20260503200021 | 69 | 293 | 10.0 | 18.0 | 0.00 | 0.00 | 0.00 | 32 | 1007.8 |
| 20260503194519 | 68 | 286 | 4.0 | 16.0 | 0.00 | 0.00 | 0.00 | 33 | 1007.9 |
| 20260503193035 | 69 | 327 | 9.0 | 13.0 | 0.00 | 0.00 | 0.00 | 33 | 1008.0 |
| 20260503191518 | 68 | 5 | 6.0 | 15.0 | 0.00 | 0.00 | 0.00 | 35 | 1008.2 |
| 20260503190022 | 68 | 262 | 4.0 | 15.0 | 0.00 | 0.00 | 0.00 | 34 | 1008.4 |
| 20260503184522 | 68 | 324 | 7.0 | 19.0 | 0.00 | 0.00 | 0.00 | 33 | 1008.5 |
| 20260503183014 | 68 | 298 | 12.0 | 19.0 | 0.00 | 0.00 | 0.00 | 31 | 1008.8 |
| 20260503181514 | 67 | 315 | 7.0 | 16.0 | 0.00 | 0.00 | 0.00 | 35 | 1009.0 |
| 20260503180018 | 67 | 5 | 8.0 | 17.0 | 0.00 | 0.00 | 0.00 | 35 | 1009.3 |
| 20260503174511 | 66 | 263 | 5.0 | 14.0 | 0.00 | 0.00 | 0.00 | 39 | 1009.6 |
| 20260503173021 | 67 | 302 | 5.0 | 12.0 | 0.00 | 0.00 | 0.00 | 36 | 1009.7 |
| 20260503171517 | 65 | 314 | 1.0 | 8.0 | 0.00 | 0.00 | 0.00 | 41 | 1010.0 |